Flag for Germany Past Weather in Rheinfelden (Baden), Baden-Württemberg, Germany — Yesterday and Last 2 Weeks

Now
79 °F

Broken clouds.


Feels Like: 80 °F
Forecast: 56 / 80 °F
Wind: 6 mph from Northwest

Location: Bale-Mulhouse

Current Time: May 27, 2016 at 4:23:11 PM

Latest Report: May 27, 2016 at 4:00 PM


Visibility: N/A

Pressure: 29.92 "Hg

Humidity: 48%

Dew Point: 57 °F

Location of Rheinfelden (Baden)Location

Past Weather in Rheinfelden (Baden) — Graph

°F

Rheinfelden (Baden) Temperature Yesterday

Maximum temperature yesterday: 79 °F (at 5:30 PM)
Minimum temperature yesterday: 48 °F (at 4:00 AM)
Average temperature yesterday: 64 °F

High & Low Weather Summary for the Past Weeks

 TemperatureHumidityPressure
High79 °F (May 26, 5:30 PM)100% (May 17, 5:00 AM)30.21 "Hg (May 17, 5:00 AM)
Low41 °F (May 16, 1:30 AM)37% (May 26, 5:30 PM)29.50 "Hg (May 12, 3:00 PM)
Average56 °F76%29.96 "Hg
* Reported May 12 3:00 PM — May 27 3:00 PM, Rheinfelden (Baden), Weather by CustomWeather, © 2016

Note: Actual official high and low records may vary slightly from our data, if they occured in-between our weather recording intervals... More about our weather records

Advertising

Rheinfelden (Baden) Weather History for the Previous 24 Hours

Scroll right to see more
 ConditionsComfort  
Time TempWeatherWind HumidityBarometerVisibility
3:00 PM
Fri, May 27
79 °FBroken clouds.7 mph48%29.92 "HgN/A
2:30 PM77 °FBroken clouds.6 mph44%29.92 "HgN/A
2:00 PM77 °FPartly sunny.5 mph47%29.95 "HgN/A
1:30 PM77 °FPartly sunny.5 mph44%29.95 "HgN/A
1:00 PM75 °FPartly sunny.3 mph50%29.95 "HgN/A
12:30 PM75 °FPartly sunny.3 mph47%29.95 "HgN/A
12:00 PM75 °FPartly sunny.2 mph54%29.98 "HgN/A
11:30 AM73 °FPartly sunny.2 mph57%29.98 "HgN/A
11:00 AM72 °FPartly sunny.2 mph65%29.98 "HgN/A
10:30 AM70 °FPartly sunny.No wind64%29.98 "HgN/A
10:00 AM68 °FSunny.1 mph69%29.98 "Hg10 mi
9:30 AM66 °FSunny.2 mph73%29.98 "Hg10 mi
9:00 AM64 °FSunny.2 mph78%29.98 "Hg10 mi
8:30 AM63 °FSunny.2 mph77%29.98 "Hg10 mi
8:00 AM61 °FSunny.No wind83%29.98 "Hg10 mi
7:30 AM57 °FSunny.1 mph94%29.98 "Hg10 mi
7:00 AM55 °FSunny.No wind100%29.98 "Hg10 mi
6:30 AM54 °FClear.2 mph100%29.95 "Hg10 mi
6:00 AM55 °FClear.1 mph94%29.95 "Hg10 mi
5:30 AM55 °FClear.2 mph94%29.95 "Hg10 mi
5:00 AM55 °FClear.No wind94%29.95 "Hg10 mi
4:30 AM55 °FClear.2 mph88%29.92 "Hg10 mi
4:00 AM55 °FClear.2 mph94%29.92 "Hg10 mi
3:30 AM55 °FClear.1 mph94%29.92 "Hg10 mi
3:00 AM57 °FClear.1 mph94%29.92 "Hg10 mi
2:30 AM57 °FClear.No wind88%29.92 "Hg10 mi
2:00 AM57 °FClear.No wind88%29.92 "Hg10 mi
1:30 AM57 °FClear.No wind88%29.92 "Hg10 mi
1:00 AM59 °FClear.2 mph82%29.92 "Hg10 mi
12:30 AM59 °FClear.2 mph82%29.92 "Hg10 mi
12:00 AM63 °FClear.2 mph73%29.92 "Hg10 mi
11:30 PM
Thu, May 26
64 °FPassing clouds.5 mph68%29.92 "HgN/A
11:00 PM63 °FPassing clouds.6 mph73%29.92 "HgN/A
10:30 PM64 °FPassing clouds.3 mph68%29.92 "HgN/A
10:00 PM66 °FSunny.7 mph64%29.92 "Hg10 mi
9:30 PM66 °FSunny.7 mph64%29.89 "Hg10 mi
9:00 PM68 °FSunny.6 mph64%29.89 "Hg10 mi
8:30 PM70 °FSunny.6 mph57%29.89 "Hg10 mi
8:00 PM73 °FSunny.5 mph50%29.89 "Hg10 mi
7:30 PM75 °FPassing clouds.3 mph44%29.89 "HgN/A
7:00 PM75 °FPassing clouds.5 mph44%29.89 "HgN/A
6:30 PM77 °FPartly sunny.6 mph44%29.89 "HgN/A
6:00 PM77 °FPartly sunny.7 mph42%29.92 "HgN/A
5:30 PM79 °FBroken clouds.6 mph37%29.92 "HgN/A
5:00 PM77 °FPartly sunny.5 mph42%29.92 "HgN/A
4:30 PM77 °FPartly sunny.7 mph44%29.92 "HgN/A
4:00 PM77 °FPartly sunny.3 mph42%29.95 "HgN/A
Weather by CustomWeather, © 2016

See weather overviewHow to use our weather pages